Location: Newark
(0.5300°S, 127.4800°E)
Time: 02:11:46
(UTC+00:00)

A-11 Canister half - Pass Details

Date: 22 September 2019
Orbit: 1514 x 1686 km, 47.2° (Epoch: 21 October)

Event Time Altitude Azimuth Distance (km) Brightness Sun altitude
Rises 00:15:18 0° 260° (W) 4,796 11.2 43.0°
Reaches altitude 10° 00:20:25 10° 282° (WNW) 3,770 10.7 44.3°
Maximum altitude 00:25:10 15° 313° (NW) 3,370 10.6 45.5°
Drops below altitude 10° 00:29:53 10° 344° (NNW) 3,703 11.0 46.7°
Sets 00:34:54 0° 7° (N) 4,659 11.6 47.9°
